EW6140 Weather Reports


time (UTC)temp
C
wind
direction
speed
KPH
gust
KPH
rain 1hr
cm
rain 24hr
cm
rain mn
cm
humidity
%
barometer
mb
20260506003056 -17 0.0 0.0 0.00 0.13 0.13 1009.8
20260506002557 -17 0.0 0.0 0.00 0.13 0.13 1010.1
20260506002056 -17 0.0 0.0 0.00 0.13 0.13 1010.0
20260506001601 -17 0.0 0.0 0.00 0.13 0.13 1009.8
20260506001056 -17 0.0 0.0 0.00 0.13 0.13 1009.7
20260506000556 -17 0.0 0.0 0.00 0.13 0.13 1009.1
20260506000100 -17 0.0 0.0 0.00 0.13 0.13 1009.4
20260505235556 -17 0.0 0.0 0.00 0.13 0.13 1008.9
20260505235056 -17 0.0 0.0 0.00 0.13 0.13 1008.6
20260505234556 -17 0.0 0.0 0.00 0.13 0.13 1008.5
20260505234057 -17 0.0 0.0 0.00 0.13 0.13 1008.6
20260505233557 -17 0.0 0.0 0.00 0.13 0.13 1008.5
20260505233116 -17 0.0 0.0 0.00 0.13 0.13 1008.1
20260505232556 -17 0.0 0.0 0.00 0.13 0.13 1007.6
20260505232059 -17 0.0 0.0 0.00 0.13 0.13 1007.4
20260505231558 -17 0.0 0.0 0.00 0.13 0.13 1007.4
20260505231058 -17 0.0 0.0 0.00 0.13 0.13 1007.3
20260505230556 -17 0.0 0.0 0.00 0.13 0.13 1007.3
20260505230059 17 0.0 1.6 0.00 0.13 0.13 76 1007.4
20260505225557 17 0 0.0 1.6 0.00 0.13 0.13 76 1007.4
20260505225101 17 0 0.0 0.0 0.00 0.13 0.13 76 1007.4
20260505224558 17 0 0.0 0.0 0.00 0.13 0.13 75 1007.4
20260505224101 17 0 0.0 0.0 0.00 0.13 0.13 75 1007.4
20260505223556 18 0 0.0 0.0 0.00 0.13 0.13 75 1007.3
20260505223057 18 0 0.0 0.0 0.00 0.13 0.13 74 1007.3
20260505222556 18 0 0.0 8.0 0.00 0.13 0.13 74 1007.1
20260505222056 18 0 0.0 8.0 0.00 0.13 0.13 73 1007.1
20260505221640 18 0 0.0 3.2 0.00 0.13 0.13 72 1007.3
20260505221100 18 0 0.0 1.6 0.00 0.13 0.13 72 1007.1
20260505220555 18 0 0.0 3.2 0.00 0.13 0.13 71 1007.0
20260505220057 18 0 0.0 6.4 0.00 0.13 0.13 70 1006.9
20260505215555 18 0 0.0 6.4 0.00 0.13 0.13 71 1006.9
20260505215058 18 0 0.0 6.4 0.00 0.13 0.13 69 1006.9
20260505214739 18 0 0.0 6.4 0.00 0.13 0.13 69 1006.8
20260505214605 18 0 0.0 6.4 0.00 0.13 0.13 69 1006.8
20260505214056 18 0 0.0 3.2 0.00 0.13 0.13 69 1006.6
20260505213557 18 0 0.0 3.2 0.00 0.13 0.13 72 1006.6
20260505213113 17 0 0.0 0.0 0.00 0.13 0.13 73 1006.6
20260505212557 17 0 0.0 0.0 0.00 0.13 0.13 73 1006.5
20260505212056 17 0 0.0 0.0 0.00 0.13 0.13 74 1006.5
20260505211736 17 0 0.0 0.0 0.00 0.13 0.13 74 1006.5
20260505211602 17 0 0.0 0.0 0.00 0.13 0.13 74 1006.5
20260505211055 17 0 0.0 0.0 0.00 0.13 0.13 75 1006.5
20260505210557 17 0 0.0 0.0 0.00 0.13 0.13 75 1006.5
20260505210109 17 0 0.0 0.0 0.00 0.13 0.13 76 1006.7
20260505205559 17 0 0.0 8.0 0.00 0.13 0.13 76 1006.5
20260505205059 17 0 0.0 14.5 0.00 0.13 0.13 78 1006.6
20260505204556 16 0 0.0 14.5 0.00 0.13 0.13 79 1006.8
20260505204056 16 0 0.0 4.8 0.00 0.13 0.13 80 1006.9
20260505203557 16 0 0.0 6.4 0.00 0.13 0.13 80 1007.1
20260505203233 16 0 1.6 6.4 0.00 0.13 0.13 83 1007.2
20260505202557 16 0 0.0 4.8 0.00 0.13 0.13 83 1007.2
20260505202055 16 0 0.0 6.4 0.00 0.13 0.13 84 1007.0
20260505201558 16 0 1.6 6.4 0.00 0.13 0.13 83 1007.0
20260505201058 16 0 0.0 1.6 0.05 0.13 0.13 85 1007.0
20260505200558 16 0 0.0 3.2 0.05 0.13 0.13 86 1006.9
20260505200059 16 0 0.0 3.2 0.08 0.13 0.13 86 1006.7
20260505195601 16 198 0.0 3.2 0.08 0.13 0.13 86 1006.7
20260505195059 15 0 0.0 0.0 0.10 0.13 0.13 85 1006.7
20260505194600 15 0 0.0 6.4 0.13 0.13 0.13 85 1006.5
20260505194100 15 0 0.0 6.4 0.13 0.13 0.13 87 1006.5
20260505193559 15 0 0.0 4.8 0.13 0.13 0.13 87 1006.7
20260505193124 15 223 0.0 4.8 0.13 0.13 0.13 88 1006.7
20260505192558 15 216 0.0 4.8 0.13 0.13 0.13 89 1006.5
20260505192058 14 0 0.0 8.0 0.13 0.13 0.13 87 1006.6
20260505191605 14 0 0.0 8.0 0.13 0.13 0.13 85 1006.5
20260505191057 15 0 0.0 1.6 0.08 0.08 0.08 84 1007.2
20260505190556 15 0 0.0 8.0 0.08 0.08 0.08 82 1006.9
20260505190209 16 0 0.0 24.1 0.05 0.05 0.05 78 1006.6
20260505190137 16 0 0.0 24.1 0.05 0.05 0.05 78 1006.6
20260505185557 17 0 1.6 25.7 0.05 0.05 0.05 73 1007.2
20260505185058 20 360 1.6 19.3 0.03 0.03 0.03 58 1007.0
20260505184609 21 248 0.0 12.9 0.00 0.00 0.00 46 1005.9
20260505184058 22 223 1.6 14.5 0.00 0.00 0.00 48 1005.7
20260505183557 22 0 0.0 14.5 0.00 0.00 0.00 45 1005.5
20260505183059 22 182 1.6 6.4 0.00 0.00 0.00 45 1005.5
20260505182555 23 0 0.0 12.9 0.00 0.00 0.00 48 1005.4
20260505182056 22 0 0.0 14.5 0.00 0.00 0.00 46 1005.4
20260505181556 22 0 0.0 14.5 0.00 0.00 0.00 47 1005.5
20260505181056 22 204 0.0 14.5 0.00 0.00 0.00 47 1005.6
20260505180556 22 0 1.6 14.5 0.00 0.00 0.00 51 1005.5
20260505180100 22 0 0.0 11.3 0.00 0.00 0.00 49 1005.6
20260505175557 22 0 0.0 4.8 0.00 0.00 0.00 51 1005.7
20260505175057 21 0 1.6 4.8 0.00 0.00 0.00 53 1005.9
20260505174602 21 174 0.0 4.8 0.00 0.00 0.00 58 1005.9
20260505174058 21 0 0.0 14.5 0.00 0.00 0.00 54 1005.8
20260505173557 21 327 0.0 14.5 0.00 0.00 0.00 48 1005.9
20260505173056 21 0 0.0 12.9 0.00 0.00 0.00 48 1006.0
20260505172556 21 0 1.6 14.5 0.00 0.00 0.00 47 1006.0
20260505172056 22 203 0.0 14.5 0.00 0.00 0.00 46 1006.0
20260505171559 22 165 1.6 9.7 0.00 0.00 0.00 49 1005.9
20260505171056 22 0 1.6 9.7 0.00 0.00 0.00 47 1006.0
20260505170558 22 246 0.0 9.7 0.00 0.00 0.00 47 1006.0
20260505170235 22 218 1.6 11.3 0.00 0.00 0.00 46 1005.7
20260505165556 22 0 0.0 11.3 0.00 0.00 0.00 47 1005.7
20260505165102 22 223 0.0 9.7 0.00 0.00 0.00 46 1005.7
20260505164714 22 218 0.0 9.7 0.00 0.00 0.00 46 1005.7
20260505164058 22 0 1.6 9.7 0.00 0.00 0.00 46 1005.5
20260505163559 22 0 0.0 16.1 0.00 0.00 0.00 46 1005.6
20260505163055 22 224 0.0 16.1 0.00 0.00 0.00 47 1005.6
20260505162558 22 257 1.6 9.7 0.00 0.00 0.00 45 1005.7
20260505162056 23 211 1.6 12.9 0.00 0.00 0.00 45 1005.9
20260505161600 23 265 1.6 12.9 0.00 0.00 0.00 45 1005.6
20260505161056 23 183 1.6 12.9 0.00 0.00 0.00 43 1005.8
20260505160557 23 0 0.0 12.9 0.00 0.00 0.00 46 1005.9
20260505160225 22 220 0.0 12.9 0.00 0.00 0.00 45 1006.1
20260505153105 22 0 1.6 12.9 0.00 0.00 0.00 53 1006.0
20260505152558 22 0 0.0 12.9 0.00 0.00 0.00 51 1006.0
20260505152057 21 0 0.0 17.7 0.00 0.00 0.00 51 1006.1
20260505151616 21 0 0.0 17.7 0.00 0.00 0.00 52 1006.0
20260505151100 21 118 0.0 11.3 0.00 0.00 0.00 57 1006.0
20260505150558 21 0 1.6 11.3 0.00 0.00 0.00 54 1005.9
20260505140557 19 195 0.0 14.5 0.00 0.00 0.00 58 1006.2
20260505124604 16 214 0.0 8.0 0.00 0.00 0.00 67 1006.7
20260505124053 16 0 0.0 9.7 0.00 0.00 0.00 67 1006.7
20260505123559 16 0 0.0 9.7 0.00 0.00 0.00 67 1006.8
20260505123113 -17 0.0 0.0 0.00 0.00 0.00 1006.8
20260505122554 -17 0.0 0.0 0.00 0.00 0.00 1006.8
20260505122057 -17 0.0 0.0 0.00 0.00 0.00 1006.7
20260505121632 -17 0.0 0.0 0.00 0.00 0.00 1006.8
20260505121600 -17 0.0 0.0 0.00 0.00 0.00 1006.8
20260505121104 -17 0.0 0.0 0.00 0.00 0.00 1006.8
20260505120559 -17 0.0 0.0 0.00 0.00 0.00 1006.9
20260505115559 -17 0.0 0.0 0.00 0.00 0.00 1007.0
20260505115059 -17 0.0 0.0 0.00 0.00 0.00 1007.0
20260505114730 -17 0.0 0.0 0.00 0.00 0.00 1006.9
20260505114054 -17 0.0 0.0 0.00 0.00 0.00 1006.8
20260505113559 -17 0.0 0.0 0.00 0.00 0.00 1006.6
20260505113108 -17 0.0 0.0 0.00 0.00 0.00 1006.5
20260505112558 -17 0.0 0.0 0.00 0.00 0.00 1006.3
20260505112055 -17 0.0 0.0 0.00 0.00 0.00 1006.3
20260505111602 -17 0.0 0.0 0.00 0.00 0.00 1006.4
20260505111128 -17 0.0 0.0 0.00 0.00 0.00 1006.3
20260505111058 -17 0.0 0.0 0.00 0.00 0.00 1006.3
20260505110555 -17 0.0 0.0 0.00 0.00 0.00 1006.5
20260505102101 -17 0.0 0.0 0.00 0.00 0.00 1006.1
20260505101558 -17 0.0 0.0 0.00 0.00 0.00 1006.1
20260505101102 -17 0.0 0.0 0.00 0.00 0.00 1006.1
20260505100600 -17 0.0 0.0 0.00 0.00 0.00 1006.0
20260505095604 -17 0.0 0.0 0.00 0.00 0.00 1006.1
20260505095059 -17 0.0 0.0 0.00 0.00 0.00 1006.0
20260505094647 -17 0.0 0.0 0.00 0.00 0.00 1006.0
20260505094059 -17 0.0 0.0 0.00 0.00 0.00 1006.2
20260505093600 -17 0.0 0.0 0.00 0.00 0.00 1006.2
20260505093109 -17 0.0 0.0 0.00 0.00 0.00 1006.2
20260505092555 -17 0.0 0.0 0.00 0.00 0.00 1006.2
20260505092059 -17 0.0 0.0 0.00 0.00 0.00 1006.3
20260505091803 -17 0.0 0.0 0.00 0.00 0.00 1006.2
20260505091057 -17 0.0 0.0 0.00 0.00 0.00 1006.2
20260505090558 -17 0.0 0.0 0.00 0.00 0.00 1006.2
20260505090231 -17 0.0 0.0 0.00 0.00 0.00 1006.2
20260505085600 -17 0.0 0.0 0.00 0.00 0.00 1006.2
20260505085104 -17 0.0 0.0 0.00 0.00 0.00 1006.2
20260505084614 -17 0.0 0.0 0.00 0.00 0.00 1006.4
20260505084100 -17 0.0 0.0 0.00 0.00 0.00 1006.4
20260505083602 -17 0.0 0.0 0.00 0.00 0.00 1006.3
20260505083111 -17 0.0 0.0 0.00 0.00 0.00 1006.5
20260505082559 -17 0.0 0.0 0.00 0.00 0.00 1006.7
20260505082059 -17 0.0 0.0 0.00 0.00 0.00 1006.5
20260505081604 -17 0.0 0.0 0.00 0.00 0.00 1006.5
20260505081100 -17 0.0 0.0 0.00 0.00 0.00 1006.2
20260505080608 -17 0.0 0.0 0.00 0.00 0.00 1006.2
20260505080229 -17 0.0 0.0 0.00 0.00 0.00 1006.1
20260505075554 -17 0.0 0.0 0.00 0.00 0.00 1006.2
20260505075320 -17 0.0 0.0 0.00 0.00 0.00 1006.4
20260505075249 -17 0.0 0.0 0.00 0.00 0.00 1006.4
20260505075128 -17 0.0 0.0 0.00 0.00 0.00 1006.4
20260505075054 -17 0.0 0.0 0.00 0.00 0.00 1006.4
20260505074557 -17 0.0 0.0 0.00 0.00 0.00 1006.4
20260505074057 -17 0.0 0.0 0.00 0.00 0.00 1006.5
20260505073557 -17 0.0 0.0 0.00 0.00 0.00 1006.5
20260505073101 -17 0.0 0.0 0.00 0.00 0.00 1006.5
20260505072558 -17 0.0 0.0 0.00 0.00 0.00 1006.7
20260505072054 -17 0.0 0.0 0.00 0.00 0.00 1006.6
20260505071616 -17 0.0 0.0 0.00 0.00 0.00 1006.6
20260505071057 -17 0.0 0.0 0.00 0.00 0.00 1006.8
20260505070554 -17 0.0 0.0 0.00 0.00 0.00 1006.7
20260505070211 -17 0.0 0.0 0.00 0.00 0.00 1006.9
20260505065555 -17 0.0 0.0 0.00 0.00 0.00 1007.0
20260505065053 -17 0.0 0.0 0.00 0.00 0.00 1007.0
20260505064720 -17 0.0 0.0 0.00 0.00 0.00 1007.0
20260505064648 -17 0.0 0.0 0.00 0.00 0.00 1007.0
20260505064058 -17 0.0 0.0 0.00 0.00 0.00 1006.9
20260505063557 -17 0.0 0.0 0.00 0.00 0.00 1006.7
20260505063100 -17 0.0 0.0 0.00 0.00 0.00 1006.4
20260505062558 -17 0.0 0.0 0.00 0.00 0.00 1006.4
20260505062056 -17 0.0 0.0 0.00 0.00 0.00 1006.4
20260505061558 -17 0.0 0.0 0.00 0.00 0.00 1006.3
20260505061220 -17 0.0 0.0 0.00 0.00 0.00 1006.3
20260505061127 -17 0.0 0.0 0.00 0.00 0.00 1006.3
20260505061055 -17 0.0 0.0 0.00 0.00 0.00 1006.3
20260505060557 -17 0.0 0.0 0.00 0.00 0.00 1006.4
20260505060215 -17 0.0 0.0 0.00 0.00 0.00 1006.2
20260505055557 -17 0.0 0.0 0.00 0.00 0.00 1006.3
20260505055059 -17 0.0 0.0 0.00 0.00 0.00 1006.3
20260505054618 -17 0.0 0.0 0.00 0.00 0.00 1006.2
20260505054057 -17 0.0 0.0 0.00 0.00 0.00 1006.2
20260505053555 -17 0.0 0.0 0.00 0.00 0.00 1006.4
20260505053115 -17 0.0 0.0 0.00 0.00 0.00 1006.3
20260505052558 -17 0.0 0.0 0.00 0.00 0.00 1006.4
20260505052054 -17 0.0 0.0 0.00 0.00 0.00 1006.4
20260505051556 -17 0.0 0.0 0.00 0.00 0.00 1006.4
20260505051058 -17 0.0 0.0 0.00 0.00 0.00 1006.5
20260505050555 -17 0.0 0.0 0.00 0.00 0.00 1006.5
20260505041709 -17 0.0 0.0 0.00 0.00 0.00 1006.3
20260505041059 -17 0.0 0.0 0.00 0.00 0.00 1006.3
20260505040559 -17 0.0 0.0 0.00 0.00 0.00 1006.3
20260505040150 -17 0.0 0.0 0.00 0.00 0.00 1006.3
20260505035553 -17 0.0 0.0 0.00 0.00 0.00 1006.4
20260505035053 -17 0.0 0.0 0.00 0.00 0.00 1006.2
20260505034741 -17 0.0 0.0 0.00 0.00 0.00 1006.2
20260505034059 -17 0.0 0.0 0.00 0.00 0.00 1006.2
20260505033556 -17 0.0 0.0 0.00 0.00 0.00 1006.1
20260505033247 -17 0.0 0.0 0.00 0.00 0.00 1006.1
20260505032602 -17 0.0 0.0 0.00 0.00 0.00 1006.2
20260505032117 -17 0.0 0.0 0.00 0.00 0.00 1006.2
20260505032039 -17 0.0 0.0 0.00 0.00 0.00 1006.2
20260505030554 -17 0.0 0.0 0.00 0.00 0.00 1006.3
20260505030126 -17 0.0 0.0 0.00 0.00 0.00 1006.3
20260505025656 -17 0.0 0.0 0.00 0.00 0.00 1006.3
20260505025102 -17 0.0 0.0 0.00 0.00 0.00 1006.3
20260505024601 -17 0.0 0.0 0.00 0.00 0.00 1006.4
20260505024058 -17 0.0 0.0 0.00 0.00 0.00 1006.4
20260505023600 -17 0.0 0.0 0.00 0.00 0.00 1006.4
20260505023059 -17 0.0 0.0 0.00 0.00 0.00 1006.5
20260505022710 -17 0.0 0.0 0.00 0.00 0.00 1006.5
20260505022629 -17 0.0 0.0 0.00 0.00 0.00 1006.5
20260505022559 -17 0.0 0.0 0.00 0.00 0.00 1006.5
20260505022100 -17 0.0 0.0 0.00 0.00 0.00 1006.4
20260505021557 -17 0.0 0.0 0.00 0.00 0.00 1006.6
20260505021058 -17 0.0 0.0 0.00 0.00 0.00 1006.5
20260505020558 -17 0.0 0.0 0.00 0.00 0.00 1006.5
20260505015558 -17 0.0 0.0 0.00 0.00 0.00 1006.3
20260505015059 -17 0.0 0.0 0.00 0.00 0.00 1006.3
20260505014610 -17 0.0 0.0 0.00 0.00 0.00 1006.5
20260505014102 -17 0.0 0.0 0.00 0.00 0.00 1006.6
20260505013558 -17 0.0 0.0 0.00 0.00 0.00 1006.4
20260505013059 -17 0.0 0.0 0.00 0.00 0.00 1006.4
20260505012559 -17 0.0 0.0 0.00 0.00 0.00 1006.4
20260505012059 -17 0.0 0.0 0.00 0.00 0.00 1006.5
20260505011710 -17 0.0 0.0 0.00 0.00 0.00 1006.5
20260505011601 -17 0.0 0.0 0.00 0.00 0.00 1006.5
20260505011056 -17 0.0 0.0 0.00 0.00 0.00 1006.4
20260505010559 -17 0.0 0.0 0.00 0.00 0.00 1006.4
20260505010116 -17 0.0 0.0 0.00 0.00 0.00 1006.5
20260505005718 -17 0.0 0.0 0.00 0.00 0.00 1006.3
20260505005059 -17 0.0 0.0 0.00 0.00 0.00 1006.2
20260505004559 -17 0.0 0.0 0.00 0.00 0.00 1006.2
20260505004100 -17 0.0 0.0 0.00 0.00 0.00 1006.2
20260505003557 -17 0.0 0.0 0.00 0.00 0.00 1006.0